Date String (YYYY-MM-DD hh:mm:ss) UTC,Instrument flags,Ambient pressure (hPa),Sample flow (lpm),Bypass flow (lpm),Sample temperature (°C),Ambient temperature (°C),ASC tube jacket temperature (°C),LED temperature (°C),Box temperature (°C),Sample RH (%),Span deviation,Mass concentration (μg/m³),Mass concentration (μg/m³),Mass concentration (μg/m³)
DateTimeUTC,F1_M11,P_M11,Q1_M11,Q2_M11,T1_M11,T2_M11,T3_M11,T4_M11,T5_M11,U1_M11,ZSPAN_M11,X0_M11,X2_M11,X1_M11
2023-05-09 19:00:00,,0828.4,5.00,0.00,30.1,28.8,00.0,38.5,31.8,20.4,0000.9,0020.84,0006.78,0005.33
2023-05-09 19:01:00,,0828.4,4.99,0.00,30.2,28.8,00.0,38.5,31.8,20.2,0001.1,0020.89,0006.78,0005.35
2023-05-09 19:02:00,,0828.4,5.00,0.00,30.2,28.9,00.0,38.5,31.9,20.1,0001.3,0020.06,0006.83,0005.37
2023-05-09 19:03:00,,0828.4,5.00,0.00,30.2,28.9,00.0,38.5,31.9,19.9,0001.2,0019.59,0006.88,0005.40
2023-05-09 19:04:00,,0828.3,5.02,0.00,30.2,28.9,00.0,38.5,31.9,20.0,0001.1,0020.23,0006.97,0005.48
2023-05-09 19:05:00,,0828.4,5.00,0.00,30.2,29.0,00.0,38.5,32.0,19.9,0000.8,0019.53,0007.02,0005.54
2023-05-09 19:06:00,,0828.4,4.99,0.00,30.3,29.0,00.0,38.6,32.0,19.9,0000.8,0018.77,0006.97,0005.53
2023-05-09 19:07:00,,0828.3,5.01,0.00,30.3,28.6,00.0,38.6,32.0,19.9,0001.3,0018.35,0006.95,0005.52
2023-05-09 19:08:00,,0828.3,5.00,0.00,30.2,26.7,00.0,38.5,31.6,19.8,0001.4,0017.61,0006.89,0005.47
2023-05-09 19:09:00,,0828.3,5.00,0.00,30.1,25.5,00.0,38.4,31.3,19.8,0001.7,0017.67,0006.78,0005.39
2023-05-09 19:10:00,,0828.3,5.01,0.00,30.0,25.6,00.0,38.3,31.2,19.9,0002.2,0018.84,0006.67,0005.32
2023-05-09 19:11:00,,0828.2,5.01,0.00,29.9,25.9,00.0,38.3,31.2,19.6,0002.3,0018.21,0006.64,0005.30
2023-05-09 19:12:00,,0828.2,5.00,0.00,29.9,26.3,00.0,38.3,31.3,19.8,0001.8,0018.53,0006.58,0005.25
2023-05-09 19:13:00,,0828.2,4.99,0.00,29.9,26.7,00.0,38.3,31.3,19.7,0001.5,0018.46,0006.53,0005.21
2023-05-09 19:14:00,,0828.2,5.01,0.00,29.8,27.1,00.0,38.3,31.4,19.8,0001.9,0018.95,0006.56,0005.16
2023-05-09 19:15:00,,0828.3,5.01,0.00,29.8,27.4,00.0,38.3,31.4,20.6,0001.9,0019.02,0006.53,0005.09
2023-05-09 19:16:00,,0828.2,5.00,0.00,29.9,27.6,00.0,38.3,31.5,21.2,0002.3,0017.88,0006.54,0005.08
2023-05-09 19:17:00,,0828.2,5.00,0.00,29.9,27.8,00.0,38.3,31.5,21.1,0002.6,0018.15,0006.58,0005.10
2023-05-09 19:18:00,,0828.2,5.00,0.00,29.9,28.0,00.0,38.3,31.5,21.6,0002.3,0018.66,0006.59,0005.13
2023-05-09 19:19:00,,0828.2,5.00,0.00,29.9,28.2,00.0,38.3,31.6,21.3,0002.1,0018.59,0006.67,0005.18
2023-05-09 19:20:00,,0828.3,4.99,0.00,29.9,28.3,00.0,38.3,31.6,21.2,0002.0,0018.79,0006.81,0005.28
2023-05-09 19:21:00,,0828.2,5.00,0.00,29.9,28.4,00.0,38.3,31.6,20.9,0001.6,0018.45,0006.93,0005.37
2023-05-09 19:22:00,,0828.2,5.00,0.00,29.9,28.5,00.0,38.3,31.7,20.7,0001.6,0018.36,0007.09,0005.48
2023-05-09 19:23:00,,0828.1,5.01,0.00,30.0,28.6,00.0,38.3,31.7,20.8,0001.8,0018.64,0007.19,0005.53
2023-05-09 19:24:00,,0828.2,5.00,0.00,30.0,28.6,00.0,38.3,31.7,21.0,0001.5,0020.39,0007.23,0005.57
2023-05-09 19:25:00,,0828.1,4.99,0.00,30.0,28.7,00.0,38.3,31.8,20.8,0001.5,0021.12,0007.21,0005.64
2023-05-09 19:26:00,,0828.1,5.01,0.00,30.0,28.7,00.0,38.4,31.7,20.7,0001.4,0020.75,0007.23,0005.71
2023-05-09 19:27:00,,0828.0,5.01,0.00,30.1,28.8,00.0,38.4,31.7,20.3,0001.4,0020.53,0007.22,0005.72
2023-05-09 19:28:00,,0828.1,4.99,0.00,30.1,28.8,00.0,38.4,31.8,20.6,0001.2,0020.18,0007.20,0005.73
2023-05-09 19:29:00,,0828.1,5.01,0.00,30.1,28.9,00.0,38.4,31.9,20.5,0001.6,0020.71,0007.26,0005.77
2023-05-09 19:30:00,,0828.1,5.01,0.00,30.1,28.9,00.0,38.4,31.9,20.2,0001.9,0021.42,0007.21,0005.77
2023-05-09 19:31:00,,0828.1,4.99,0.00,30.2,28.9,00.0,38.4,31.9,20.0,0001.7,0022.23,0007.16,0005.74
2023-05-09 19:32:00,,0828.1,4.99,0.00,30.2,27.7,00.0,38.4,31.7,20.6,0001.8,0022.20,0007.10,0005.70
2023-05-09 19:33:00,,0828.0,5.01,0.00,30.1,25.8,00.0,38.3,31.3,20.0,0001.6,0021.35,0006.98,0005.62
2023-05-09 19:34:00,,0828.0,5.01,0.00,30.0,25.4,00.0,38.2,31.2,20.2,0001.7,0021.32,0006.88,0005.59
2023-05-09 19:35:00,,0827.9,5.01,0.00,29.9,25.6,00.0,38.2,31.1,19.9,0001.9,0020.05,0006.85,0005.54
2023-05-09 19:36:00,,0827.9,5.01,0.00,29.8,26.0,00.0,38.2,31.2,19.6,0002.2,0018.98,0006.85,0005.48
2023-05-09 19:37:00,,0827.9,4.99,0.00,29.8,26.4,00.0,38.2,31.2,20.1,0002.3,0019.31,0006.79,0005.42
2023-05-09 19:38:00,,0827.9,5.00,0.00,29.7,26.8,00.0,38.2,31.3,19.9,0002.2,0019.81,0006.74,0005.36
2023-05-09 19:39:00,,0827.9,5.01,0.00,29.7,27.1,00.0,38.2,31.3,20.0,0002.4,0019.84,0006.72,0005.33
2023-05-09 19:40:00,,0827.9,5.02,0.00,29.7,27.4,00.0,38.2,31.3,19.9,0002.1,0018.74,0006.68,0005.27
2023-05-09 19:41:00,,0827.8,4.99,0.00,29.8,27.6,00.0,38.2,31.4,19.8,0001.9,0018.12,0006.70,0005.24
2023-05-09 19:42:00,,0827.8,5.00,0.00,29.8,27.8,00.0,38.2,31.4,20.3,0001.8,0017.35,0006.70,0005.21
2023-05-09 19:43:00,,0827.8,5.00,0.00,29.8,28.0,00.0,38.2,31.5,20.3,0001.8,0017.77,0006.84,0005.27
2023-05-09 19:44:00,,0827.8,5.00,0.00,29.8,28.1,00.0,38.2,31.5,20.4,0002.0,0018.52,0006.92,0005.30
2023-05-09 19:45:00,,0827.8,5.01,0.00,29.8,28.3,00.0,38.2,31.5,20.5,0002.0,0018.36,0007.03,0005.33
2023-05-09 19:46:00,,0827.9,5.00,0.00,29.8,28.4,00.0,38.2,31.6,20.5,0002.1,0018.22,0007.08,0005.39
2023-05-09 19:47:00,,0827.9,5.00,0.00,29.9,28.5,00.0,38.2,31.6,20.6,0001.9,0019.05,0007.17,0005.44
2023-05-09 19:48:00,,0827.9,5.00,0.00,29.9,28.5,00.0,38.2,31.7,20.4,0001.7,0019.07,0007.23,0005.54
2023-05-09 19:49:00,,0827.9,4.99,0.00,29.9,28.6,00.0,38.2,31.7,20.2,0001.1,0018.60,0007.32,0005.62
2023-05-09 19:50:00,,0827.9,4.99,0.00,30.0,28.7,00.0,38.3,31.7,20.1,0000.5,0019.88,0007.42,0005.67
2023-05-09 19:51:00,,0827.9,5.01,0.00,30.0,28.7,00.0,38.3,31.7,20.1,0000.6,0021.90,0007.55,0005.75
2023-05-09 19:52:00,,0827.9,5.01,0.00,30.0,28.8,00.0,38.3,31.8,19.9,0001.0,0022.19,0007.56,0005.83
2023-05-09 19:53:00,,0827.8,4.98,0.00,30.0,28.8,00.0,38.3,31.8,20.2,0001.4,0022.47,0007.55,0005.87
2023-05-09 19:54:00,,0827.8,5.01,0.00,30.1,28.8,00.0,38.3,31.8,20.4,0001.5,0021.92,0007.43,0005.84
2023-05-09 19:55:00,,0827.8,5.01,0.00,30.1,28.9,00.0,38.4,31.8,20.4,0001.7,0022.56,0007.40,0005.81
2023-05-09 19:56:00,,0827.8,5.00,0.00,30.1,28.9,00.0,38.4,31.9,20.5,0001.7,0022.76,0007.39,0005.78
2023-05-09 19:57:00,,0827.8,4.99,0.00,30.1,29.0,00.0,38.4,31.9,20.2,0001.6,0022.72,0007.34,0005.72
2023-05-09 19:58:00,,0827.8,5.00,0.00,30.2,28.7,00.0,38.4,31.9,19.9,0001.4,0022.55,0007.29,0005.69
2023-05-09 19:59:00,,0827.8,5.00,0.00,30.1,26.9,00.0,38.4,31.6,20.0,0001.2,0022.63,0007.27,0005.64
